ISR43 LLBG-LLER

Flight info

Callsign ISR43
Flight time 0h 39m
Altitude 20000
Route TOMAL J10 NURIT
Aircraft A320/M-SDE3FGHIRWY/LB1

Departure

Time 2026-04-22 10:37
Airport Ben Gurion International Airport (LLBG)

Arrival

Time 2026-04-22 11:17
Airport Ramon International Airport (LLER)
Time Latitude Longitude Altitude Speed Heading
2026-04-22 09:13 32.00307 34.87918 126 ft 0 kts 120°
2026-04-22 09:14 32.00266 34.87896 125 ft 0 kts 122°
2026-04-22 10:22 32.00277 34.87873 128 ft 4 kts 115°
2026-04-22 10:23 32.00287 34.87844 126 ft 4 kts 100°
2026-04-22 10:23 32.00287 34.87813 127 ft 4 kts 71°
2026-04-22 10:23 32.00276 34.87793 126 ft 1 kts 30°
2026-04-22 10:30 32.00283 34.87797 126 ft 2 kts 30°
2026-04-22 10:30 32.00310 34.87817 129 ft 9 kts 31°
2026-04-22 10:31 32.00389 34.87873 129 ft 17 kts 31°
2026-04-22 10:31 32.00494 34.87949 129 ft 17 kts 33°
2026-04-22 10:31 32.00566 34.87912 129 ft 14 kts 324°
2026-04-22 10:31 32.00627 34.87939 125 ft 0 kts 37°
2026-04-22 10:32 32.00627 34.87940 125 ft 1 kts 37°
2026-04-22 10:33 32.00671 34.87977 126 ft 15 kts 34°
2026-04-22 10:33 32.00799 34.88070 129 ft 27 kts 30°
2026-04-22 10:33 32.00970 34.88187 127 ft 28 kts 31°
2026-04-22 10:33 32.01131 34.88309 128 ft 28 kts 32°
2026-04-22 10:34 32.01281 34.88426 127 ft 23 kts 40°
2026-04-22 10:34 32.01389 34.88560 127 ft 23 kts 58°
2026-04-22 10:34 32.01463 34.88716 126 ft 20 kts 68°
2026-04-22 10:34 32.01501 34.88865 129 ft 17 kts 78°
2026-04-22 10:35 32.01523 34.89009 130 ft 18 kts 81°
2026-04-22 10:35 32.01541 34.89135 130 ft 10 kts 81°
2026-04-22 10:35 32.01601 34.89156 130 ft 11 kts 348°
2026-04-22 10:35 32.01684 34.89137 128 ft 13 kts 349°
2026-04-22 10:36 32.01749 34.89115 127 ft 5 kts 309°
2026-04-22 10:36 32.01713 34.88874 132 ft 56 kts 260°
2026-04-22 10:36 32.01605 34.88174 127 ft 116 kts 260°
2026-04-22 10:37 32.01435 34.87051 182 ft 155 kts 261°
2026-04-22 10:37 32.00953 34.84748 1380 ft 151 kts 238°
2026-04-22 10:37 32.00103 34.83988 1746 ft 161 kts 199°
2026-04-22 10:38 31.98986 34.83899 2139 ft 165 kts 166°
2026-04-22 10:38 31.97998 34.84549 2659 ft 161 kts 133°
2026-04-22 10:38 31.97259 34.85534 3188 ft 161 kts 130°
2026-04-22 10:38 31.96615 34.86668 3473 ft 177 kts 114°
2026-04-22 10:39 31.96139 34.88087 3783 ft 195 kts 110°
2026-04-22 10:39 31.95627 34.89647 4145 ft 214 kts 111°
2026-04-22 10:39 31.94396 34.93213 5061 ft 254 kts 112°
2026-04-22 10:40 31.93717 34.95189 5704 ft 268 kts 111°
2026-04-22 10:40 31.93010 34.97253 6489 ft 275 kts 112°
2026-04-22 10:40 31.92268 34.99350 7302 ft 280 kts 114°
2026-04-22 10:40 31.91506 35.01489 8054 ft 290 kts 114°
2026-04-22 10:41 31.90715 35.03702 8748 ft 298 kts 114°
2026-04-22 10:41 31.89892 35.05937 8939 ft 298 kts 115°
2026-04-22 10:41 31.89014 35.08276 8986 ft 322 kts 115°
2026-04-22 10:41 31.88096 35.10718 8990 ft 329 kts 114°
2026-04-22 10:42 31.87172 35.13187 8989 ft 330 kts 114°
2026-04-22 10:42 31.86251 35.15664 8992 ft 331 kts 114°
2026-04-22 10:42 31.85334 35.18141 8994 ft 330 kts 114°
2026-04-22 10:42 31.84419 35.20619 8995 ft 330 kts 114°
2026-04-22 10:43 31.83508 35.23098 8996 ft 330 kts 114°
2026-04-22 10:43 31.82595 35.25577 8996 ft 330 kts 114°
2026-04-22 10:43 31.81696 35.28019 8997 ft 329 kts 114°
2026-04-22 10:43 31.80785 35.30489 8993 ft 329 kts 114°
2026-04-22 10:44 31.79874 35.32955 8999 ft 329 kts 114°
2026-04-22 10:44 31.78962 35.35424 9000 ft 329 kts 114°
2026-04-22 10:44 31.78052 35.37890 9001 ft 329 kts 114°
2026-04-22 10:44 31.77135 35.40357 9001 ft 329 kts 116°
2026-04-22 10:45 31.75954 35.42642 9001 ft 327 kts 130°
2026-04-22 10:45 31.74334 35.44500 9003 ft 325 kts 144°
2026-04-22 10:45 31.72384 35.45828 9005 ft 323 kts 159°
2026-04-22 10:45 31.70245 35.46603 9008 ft 322 kts 171°
2026-04-22 10:46 31.68023 35.46831 9010 ft 320 kts 183°
2026-04-22 10:46 31.65825 35.46497 9010 ft 319 kts 193°
2026-04-22 10:46 31.63639 35.45979 9175 ft 324 kts 193°
2026-04-22 10:46 31.61427 35.45451 10099 ft 325 kts 193°
2026-04-22 10:47 31.59202 35.44935 10913 ft 328 kts 192°
2026-04-22 10:47 31.56948 35.44434 11701 ft 332 kts 192°
2026-04-22 10:47 31.54663 35.43933 12486 ft 336 kts 192°
2026-04-22 10:47 31.52351 35.43426 13267 ft 340 kts 192°
2026-04-22 10:48 31.50010 35.42910 14022 ft 345 kts 192°
2026-04-22 10:48 31.47641 35.42386 14719 ft 348 kts 192°
2026-04-22 10:48 31.42997 35.41351 16082 ft 354 kts 192°
2026-04-22 10:49 31.41357 35.40989 16552 ft 357 kts 192°
2026-04-22 10:49 31.38111 35.40269 16945 ft 359 kts 193°
2026-04-22 10:49 31.35656 35.39722 16907 ft 360 kts 192°
2026-04-22 10:49 31.33262 35.39212 17048 ft 350 kts 190°
2026-04-22 10:50 31.30806 35.38928 17033 ft 357 kts 187°
2026-04-22 10:50 31.28324 35.38671 17032 ft 359 kts 187°
2026-04-22 10:50 31.25800 35.38399 17035 ft 375 kts 187°
2026-04-22 10:50 31.24910 35.38301 17032 ft 383 kts 187°
2026-04-22 10:51 31.20399 35.37812 17025 ft 396 kts 187°
2026-04-22 10:51 31.17649 35.37524 17022 ft 397 kts 187°
2026-04-22 10:51 31.14902 35.37238 17022 ft 397 kts 187°
2026-04-22 10:51 31.12147 35.36963 17022 ft 397 kts 187°
2026-04-22 10:52 31.10327 35.36782 17019 ft 397 kts 187°
2026-04-22 10:52 31.06646 35.36413 17024 ft 397 kts 187°
2026-04-22 10:52 31.03899 35.36131 17025 ft 397 kts 187°
2026-04-22 10:52 31.01150 35.35844 17025 ft 397 kts 187°
2026-04-22 10:53 30.98400 35.35559 17026 ft 397 kts 187°
2026-04-22 10:53 30.95692 35.35252 17047 ft 396 kts 190°
2026-04-22 10:53 30.93873 35.34816 17035 ft 395 kts 198°
2026-04-22 10:53 30.90508 35.33246 17038 ft 394 kts 206°
2026-04-22 10:54 30.88000 35.31966 17031 ft 394 kts 205°
2026-04-22 10:54 30.85483 35.30709 17034 ft 393 kts 205°
2026-04-22 10:54 30.82965 35.29463 17036 ft 393 kts 205°
2026-04-22 10:54 30.80445 35.28226 17037 ft 393 kts 205°
2026-04-22 10:55 30.77926 35.26997 17036 ft 393 kts 205°
2026-04-22 10:55 30.76223 35.26167 17035 ft 393 kts 205°
2026-04-22 10:55 30.72886 35.24536 17034 ft 393 kts 205°
2026-04-22 10:55 30.70369 35.23303 17030 ft 393 kts 205°
2026-04-22 10:56 30.67853 35.22069 17027 ft 393 kts 205°
2026-04-22 10:56 30.65340 35.20832 17025 ft 392 kts 205°
2026-04-22 10:56 30.62825 35.19599 17023 ft 393 kts 205°
2026-04-22 10:56 30.60307 35.18368 17022 ft 393 kts 205°
2026-04-22 10:57 30.57789 35.17137 17021 ft 393 kts 205°
2026-04-22 10:57 30.50280 35.15114 17008 ft 396 kts 191°
2026-04-22 10:58 30.47561 35.14592 17005 ft 396 kts 192°
2026-04-22 10:58 30.44842 35.14064 17000 ft 396 kts 192°
2026-04-22 10:58 30.42136 35.13529 16996 ft 392 kts 192°
2026-04-22 10:58 30.39430 35.12999 16990 ft 396 kts 192°
2026-04-22 10:59 30.36711 35.12479 17000 ft 397 kts 192°
2026-04-22 10:59 30.33988 35.11962 17006 ft 397 kts 192°
2026-04-22 10:59 30.31264 35.11443 17009 ft 396 kts 192°
2026-04-22 10:59 30.28585 35.10940 16989 ft 382 kts 192°
2026-04-22 11:00 30.25992 35.10453 16495 ft 375 kts 192°
2026-04-22 11:00 30.23427 35.09972 15507 ft 372 kts 191°
2026-04-22 11:00 30.20902 35.09495 14865 ft 361 kts 192°
2026-04-22 11:00 30.18479 35.09013 14382 ft 346 kts 192°
2026-04-22 11:01 30.16148 35.08529 13908 ft 334 kts 192°
2026-04-22 11:01 30.13895 35.08056 13407 ft 324 kts 193°
2026-04-22 11:01 30.11711 35.07596 12954 ft 317 kts 193°
2026-04-22 11:01 30.09533 35.07132 12509 ft 319 kts 193°
2026-04-22 11:02 30.07347 35.06673 12056 ft 320 kts 192°
2026-04-22 11:02 30.05148 35.06218 11603 ft 322 kts 192°
2026-04-22 11:02 30.02938 35.05779 11171 ft 322 kts 190°
2026-04-22 11:02 30.00766 35.05358 11038 ft 312 kts 191°
2026-04-22 11:03 29.98654 35.04957 10913 ft 303 kts 191°
2026-04-22 11:03 29.96602 35.04566 10785 ft 295 kts 190°
2026-04-22 11:03 29.94607 35.04182 10652 ft 286 kts 190°
2026-04-22 11:03 29.92669 35.03809 10529 ft 279 kts 190°
2026-04-22 11:04 29.90777 35.03443 10358 ft 273 kts 191°
2026-04-22 11:04 29.88921 35.03076 10290 ft 270 kts 190°
2026-04-22 11:04 29.87032 35.02704 9813 ft 280 kts 190°
2026-04-22 11:04 29.85136 35.02336 9638 ft 273 kts 189°
2026-04-22 11:05 29.83277 35.01978 9178 ft 269 kts 189°
2026-04-22 11:05 29.81425 35.01798 8673 ft 266 kts 177°
2026-04-22 11:05 29.79575 35.01878 8154 ft 265 kts 177°
2026-04-22 11:05 29.77738 35.01954 7667 ft 263 kts 177°
2026-04-22 11:06 29.75915 35.01934 7143 ft 263 kts 186°
2026-04-22 11:06 29.74134 35.01389 6627 ft 265 kts 202°
2026-04-22 11:06 29.72519 35.00482 6426 ft 251 kts 204°
2026-04-22 11:06 29.70992 34.99622 6305 ft 239 kts 204°
2026-04-22 11:07 29.69552 34.98817 6199 ft 221 kts 204°
2026-04-22 11:07 29.68220 34.98072 6081 ft 205 kts 203°
2026-04-22 11:07 29.66950 34.97363 5819 ft 200 kts 203°
2026-04-22 11:07 29.65707 34.96673 5562 ft 197 kts 202°
2026-04-22 11:08 29.64466 34.95985 5296 ft 199 kts 204°
2026-04-22 11:08 29.63220 34.95292 5004 ft 199 kts 204°
2026-04-22 11:08 29.61985 34.94619 4906 ft 198 kts 201°
2026-04-22 11:08 29.60731 34.93930 4541 ft 201 kts 204°
2026-04-22 11:09 29.59474 34.93229 4223 ft 200 kts 205°
2026-04-22 11:09 29.58218 34.92529 3944 ft 201 kts 205°
2026-04-22 11:09 29.56979 34.91838 3676 ft 202 kts 206°
2026-04-22 11:09 29.55710 34.91129 3402 ft 205 kts 206°
2026-04-22 11:10 29.54421 34.90413 3272 ft 208 kts 206°
2026-04-22 11:10 29.53096 34.89767 3272 ft 207 kts 191°
2026-04-22 11:10 29.51681 34.89865 3250 ft 206 kts 159°
2026-04-22 11:10 29.50539 34.90791 3250 ft 203 kts 127°
2026-04-22 11:11 29.49986 34.92238 3251 ft 197 kts 95°
2026-04-22 11:11 29.50133 34.93745 3248 ft 189 kts 66°
2026-04-22 11:11 29.50879 34.94944 3247 ft 185 kts 38°
2026-04-22 11:11 29.52018 34.95591 3254 ft 184 kts 13°
2026-04-22 11:12 29.53265 34.95953 3287 ft 185 kts 14°
2026-04-22 11:12 29.54520 34.96320 3164 ft 187 kts 13°
2026-04-22 11:12 29.55777 34.96675 2970 ft 184 kts 13°
2026-04-22 11:12 29.57025 34.97023 2793 ft 184 kts 14°
2026-04-22 11:13 29.58263 34.97369 2620 ft 182 kts 13°
2026-04-22 11:13 29.59467 34.97705 2525 ft 172 kts 13°
2026-04-22 11:13 29.60593 34.98020 2369 ft 157 kts 12°
2026-04-22 11:13 29.61649 34.98314 2181 ft 155 kts 13°
2026-04-22 11:14 29.62656 34.98596 2006 ft 140 kts 11°
2026-04-22 11:14 29.63596 34.98858 1815 ft 138 kts 12°
2026-04-22 11:14 29.64519 34.99116 1635 ft 137 kts 14°
2026-04-22 11:14 29.65462 34.99379 1459 ft 142 kts 13°
2026-04-22 11:15 29.66426 34.99649 1263 ft 143 kts 17°
2026-04-22 11:15 29.67390 34.99917 1041 ft 141 kts 18°
2026-04-22 11:15 29.68325 35.00177 842 ft 137 kts 18°
2026-04-22 11:15 29.69255 35.00442 691 ft 136 kts 18°
2026-04-22 11:16 29.70156 35.00689 520 ft 130 kts 15°
2026-04-22 11:16 29.71045 35.00937 344 ft 131 kts 17°
2026-04-22 11:16 29.71881 35.01172 279 ft 107 kts 14°
2026-04-22 11:16 29.72434 35.01327 279 ft 57 kts 14°
2026-04-22 11:17 29.72689 35.01398 278 ft 30 kts 13°
2026-04-22 11:17 29.72884 35.01453 278 ft 28 kts 14°
2026-04-22 11:17 29.73065 35.01502 280 ft 26 kts 10°
2026-04-22 11:17 29.73236 35.01500 280 ft 24 kts 351°
2026-04-22 11:18 29.73348 35.01464 270 ft 9 kts 343°
2026-04-22 11:18 29.73377 35.01447 266 ft 2 kts 327°
2026-04-22 11:18 29.73375 35.01379 259 ft 16 kts 233°
2026-04-22 11:18 29.73265 35.01336 258 ft 18 kts 193°
2026-04-22 11:19 29.73139 35.01299 258 ft 18 kts 195°
2026-04-22 11:19 29.73015 35.01267 257 ft 19 kts 193°
2026-04-22 11:19 29.72888 35.01230 257 ft 15 kts 194°
2026-04-22 11:19 29.72833 35.01168 255 ft 14 kts 281°
2026-04-22 11:20 29.72862 35.01046 253 ft 15 kts 285°
2026-04-22 11:20 29.72830 35.00978 252 ft 11 kts 203°
2026-04-22 11:20 29.72745 35.00954 252 ft 14 kts 193°
2026-04-22 11:20 29.72648 35.00926 252 ft 13 kts 194°
2026-04-22 11:21 29.72592 35.00904 252 ft 6 kts 218°
2026-04-22 11:21 29.72588 35.00881 252 ft 3 kts 276°
2026-04-22 11:21 29.72596 35.00843 252 ft 6 kts 283°
2026-04-22 11:21 29.72598 35.00832 252 ft 0 kts 285°